[[{"header":{"parameterUnit":"m.s-1","parameterCategory":1,"la1":30.2991,"la2":30.254,"lo1":-89.0895,"lo2":-89.0444,"dy":0.0017,"dx":0.0017,"nx":28,"ny":28,"refTime":"2025-09-13T21:00:00:Z","depth":0,"parameterNumber":2,"parameterNumberName":"U-component_of_WINDS"},"data":[0,0,0,0,0,0,0,0,0,0,0,0,0,0,0,0,0,0,0,0,0,0,0,0,0,0,0,0,0,0,0,0,0,0,0,0,0,0,0,0,0,0,0,0,0,0,0,0,0,0,0,0,0,0,0,0,0,0,-2.8921,-2.8921,0,-2.8928,-2.8928,-2.8928,-2.8892,-2.8891,-2.889,-2.8889,-2.8901,-2.8902,-2.8903,0,0,0,0,0,0,0,0,0,0,0,0,0,-2.8881,-2.8882,-2.8921,-2.8921,-2.8921,-2.8928,-2.8928,-2.8928,-2.8892,-2.8891,-2.889,-2.8888,-2.89,-2.8902,-2.8903,0,0,0,0,0,0,0,0,0,0,0,0,0,-2.8894,-2.8882,-2.8921,-2.8904,-2.8902,-2.8928,-2.8928,-2.8928,-2.8893,-2.8891,-2.8889,-2.8888,-2.89,-2.8902,-2.8904,-2.8947,0,0,-2.891,-2.891,0,0,0,0,0,0,0,0,-2.8894,-2.8896,-2.8906,-2.8905,-2.8903,-2.8907,-2.8918,-2.8935,-2.8893,-2.8896,-2.8889,-2.8887,-2.8905,-2.8906,-2.8911,-2.8948,-2.8949,-2.891,-2.8911,-2.8912,-2.8912,0,0,0,0,0,0,0,-2.8893,-2.8895,-2.8924,-2.8906,-2.8905,-2.8898,-2.8898,-2.8921,-2.8909,-2.8896,-2.8893,-2.8894,-2.8904,-2.8909,-2.8911,-2.8949,-2.891,-2.8911,-2.8913,-2.8913,-2.9024,-2.9026,0,0,0,0,0,0,-2.8893,-2.8895,-2.8924,-2.8924,-2.8894,-2.8899,-2.89,-2.8908,-2.8909,-2.8908,-2.8896,-2.8893,-2.8907,-2.8909,-2.8911,-2.8963,-2.8912,-2.8914,-2.8915,-2.9022,-2.9025,-2.9026,0,0,0,0,0,0,-2.8893,-2.8896,-2.8923,-2.8909,-2.8912,-2.8902,-2.8911,-2.8909,-2.8914,-2.8909,-2.8907,-2.8903,-2.8905,-2.8909,-2.8939,-2.8963,-2.8915,-2.8916,-2.902,-2.9023,-2.9025,-2.9067,0,0,0,0,0,0,-2.8892,-2.8896,-2.8911,-2.8909,-2.8912,-2.8949,-2.8913,-2.891,-2.8917,-2.8913,-2.8915,-2.8914,-2.8904,-2.8936,-2.8941,-2.8965,-2.8918,-2.9018,-2.9022,-2.9025,-2.9063,-2.9071,-2.9077,0,0,0,0,0,-2.889,-2.8923,-2.8912,-2.8916,-2.8931,-2.895,-2.8952,-2.8939,-2.8919,-2.8935,-2.8932,-2.8914,-2.896,-2.8939,-2.8944,-2.897,-2.9016,-2.9021,-2.9024,-2.906,-2.9069,-2.9077,0,0,0,0,0,0,-2.893,-2.8923,-2.891,-2.8943,-2.8948,-2.8944,-2.8964,-2.8949,-2.896,-2.8956,-2.894,-2.8941,-2.8975,-2.8975,-2.8953,-2.9013,-2.8985,-2.899,-2.9011,-2.9019,-2.9026,-2.9025,-2.8919,0,0,0,0,0,-2.8942,-2.8957,-2.8951,-2.8981,-2.8983,-2.8973,-2.8981,-2.8971,-2.8975,-2.8977,-2.8976,-2.8983,-2.8998,-2.9009,-2.9023,-2.9064,-2.9065,-2.9084,-2.9091,-2.9097,-2.9101,-2.9124,-2.9132,-2.904,-2.9039,-2.9039,0,0,-2.8968,-2.8966,-2.8976,-2.8988,-2.899,-2.9008,-2.8975,-2.8994,-2.9008,-2.8981,-2.9008,-2.9009,-2.9015,-2.9051,-2.9067,-2.9052,-2.9127,-2.9102,-2.9106,-2.9107,-2.9129,-2.9138,-2.9145,-2.9042,-2.9042,-2.9041,0,0,-2.9023,-2.9023,-2.9048,-2.9051,-2.9054,-2.9048,-2.9054,-2.9053,-2.9052,-2.908,-2.906,-2.9077,-2.9104,-2.911,-2.9116,-2.9177,-2.9161,-2.9182,-2.9217,-2.924,-2.9247,-2.9253,-2.9275,-2.9283,-2.9187,-2.9187,-2.9187,0,-2.9055,-2.9078,-2.9063,-2.9084,-2.9091,-2.9066,-2.9093,-2.9097,-2.9105,-2.9111,-2.9095,-2.913,-2.9133,-2.917,-2.9185,-2.9191,-2.9199,-2.9181,-2.9247,-2.9253,-2.9259,-2.928,-2.9288,-2.9189,-2.9189,-2.9189,-2.9188,0,-2.9118,-2.9135,-2.9155,-2.9162,-2.9172,-2.9195,-2.9185,-2.9197,-2.9187,-2.9183,-2.9212,-2.9215,-2.923,-2.9238,-2.9229,-2.9275,-2.9266,-2.9249,-2.922,-2.927,-2.929,-2.9297,-2.9193,-2.9192,-2.9191,-2.9191,0,0,-2.9196,-2.9196,-2.9203,-2.9207,-2.921,-2.9224,-2.9248,-2.9261,-2.9271,-2.9279,-2.9299,-2.9324,-2.9309,-2.9316,-2.9308,-2.9327,-2.9376,-2.9308,-2.9308,-2.932,-2.9428,-2.944,-2.9449,-2.9366,-2.9368,-2.9369,-2.9428,0,-2.925,-2.9288,-2.9276,-2.9315,-2.9332,-2.931,-2.9331,-2.9337,-2.9334,-2.935,-2.9348,-2.9365,-2.9343,-2.9348,-2.9367,-2.9366,-2.9397,-2.9362,-2.9386,-2.9387,-2.9384,-2.9459,-2.9472,-2.9527,-2.9435,-2.9436,-2.9437,0,-2.9317,-2.9327,-2.9367,-2.9368,-2.9375,-2.9394,-2.9406,-2.942,-2.9427,-2.9424,-2.9433,-2.9421,-2.9447,-2.9419,-2.9455,-2.9431,-2.9441,-2.9443,-2.9445,-2.9445,-2.9414,-2.9462,-2.9544,-2.9552,-2.9449,-2.9448,-2.9447,0,-2.937,-2.9393,-2.942,-2.9424,-2.9427,-2.944,-2.9443,-2.9447,-2.9457,-2.9468,-2.9475,-2.949,-2.9498,-2.9511,-2.9504,-2.9485,-2.9542,-2.9514,-2.9542,-2.9542,-2.9553,-2.9552,-2.9637,-2.9561,-2.9561,-2.9561,-2.9561,0,-2.9431,-2.9457,-2.9444,-2.9461,-2.949,-2.9477,-2.9507,-2.9507,-2.9512,-2.953,-2.9514,-2.9531,-2.9521,-2.9539,-2.9535,-2.9566,-2.957,-2.9569,-2.9567,-2.957,-2.957,-2.9575,-2.9571,-2.9563,-2.9563,-2.9562,-2.9562,0,-2.9494,-2.9486,-2.9515,-2.9515,-2.9516,-2.9537,-2.9538,-2.9555,-2.9552,-2.9575,-2.958,-2.9576,-2.9596,-2.9591,-2.9614,-2.9611,-2.965,-2.9644,-2.9647,-2.9645,-2.9672,-2.967,-2.9763,-2.9775,-2.9692,-2.9693,-2.9694,0,-2.9532,-2.9551,-2.9554,-2.9564,-2.9567,-2.9583,-2.9592,-2.9582,-2.9593,-2.9603,-2.9619,-2.9638,-2.9651,-2.9685,-2.9686,-2.9703,-2.9697,-2.9729,-2.97,-2.9702,-2.9697,-2.9696,-2.9698,-2.9734,-2.9735,-2.9736,-2.9737,0,-2.9602,-2.9598,-2.961,-2.9623,-2.9634,-2.9644,-2.9652,-2.9662,-2.9653,-2.9666,-2.9686,-2.9697,-2.9719,-2.9739,-2.9755,-2.976,-2.9747,-2.9746,-2.9753,-2.9755,-2.9756,-2.9756,-2.9661,-2.9744,-2.9743,-2.9742,-2.9742,-2.9742,-2.9653,-2.9669,-2.9674,-2.9689,-2.9695,-2.9703,-2.9719,-2.9718,-2.9734,-2.975,-2.9744,-2.9767,-2.9776,-2.9796,-2.9803,-2.9822,-2.9811,-2.9821,-2.9824,-2.9826,-2.9829,-2.9754,-2.9826,-2.9825,-2.9825,-2.9825,-2.9825,0,-2.9721,-2.9723,-2.9738,-2.9749,-2.9763,-2.9749,-2.9758,-2.977,-2.979,-2.9798,-2.9812,-2.9836,-2.9855,-2.9858,-2.9876,-2.9892,-2.9886,-2.9897,-2.9895,-2.9896,-2.9839,-2.983,-2.9901,-2.9901,-2.9901,-2.99,-2.99,-2.99,-2.9758,-2.9785,-2.9781,-2.9811,-2.9814,-2.9834,-2.9841,-2.985,-2.9856,-2.9883,-2.9898,-2.9899,-2.9906,-2.9925,-2.9943,-2.9944,-2.9951,-2.9964,-2.9962,-2.9908,-2.99,-2.9893,-2.9885,-2.9965,-2.9966,-3.0018,-3.0018,-3.0019]},{"header":{"parameterUnit":"m.s-1","parameterCategory":1,"la1":30.2991,"la2":30.254,"lo1":-89.0895,"lo2":-89.0444,"dy":0.0017,"dx":0.0017,"nx":28,"ny":28,"refTime":"2025-09-13T21:00:00:Z","depth":0,"parameterNumber":3,"parameterNumberName":"V-component_of_WINDS"},"data":[0,0,0,0,0,0,0,0,0,0,0,0,0,0,0,0,0,0,0,0,0,0,0,0,0,0,0,0,0,0,0,0,0,0,0,0,0,0,0,0,0,0,0,0,0,0,0,0,0,0,0,0,0,0,0,0,0,0,2.6106,2.6106,0,2.6127,2.6127,2.6128,2.6198,2.6199,2.6201,2.6202,2.6219,2.6218,2.6217,0,0,0,0,0,0,0,0,0,0,0,0,0,2.6122,2.6121,2.6106,2.6106,2.6107,2.6127,2.6127,2.6128,2.6197,2.6199,2.6201,2.6203,2.6219,2.6218,2.6217,0,0,0,0,0,0,0,0,0,0,0,0,0,2.6126,2.6121,2.6106,2.6144,2.6148,2.6127,2.6128,2.6128,2.6197,2.6199,2.6202,2.6204,2.6219,2.6218,2.6216,2.6159,0,0,2.6212,2.6211,0,0,0,0,0,0,0,0,2.6126,2.6125,2.6138,2.6141,2.6145,2.6162,2.6139,2.6138,2.6196,2.6178,2.6202,2.6205,2.6198,2.6198,2.6197,2.616,2.6161,2.6212,2.6211,2.621,2.6209,0,0,0,0,0,0,0,2.6125,2.6125,2.6114,2.6138,2.6143,2.6159,2.6162,2.6139,2.6174,2.618,2.6185,2.6187,2.62,2.6198,2.6198,2.6161,2.6212,2.621,2.6209,2.6209,2.6079,2.6076,0,0,0,0,0,0,2.612,2.6124,2.6114,2.6115,2.6141,2.6156,2.616,2.6154,2.6175,2.618,2.6185,2.619,2.62,2.6199,2.6198,2.6132,2.621,2.6208,2.6208,2.6081,2.6078,2.6075,0,0,0,0,0,0,2.612,2.6119,2.6113,2.6121,2.6122,2.6154,2.6147,2.6154,2.6152,2.6178,2.6185,2.6176,2.6201,2.6201,2.6169,2.6134,2.6208,2.6206,2.6084,2.608,2.6077,2.5999,0,0,0,0,0,0,2.6121,2.6118,2.6098,2.612,2.6121,2.6084,2.6145,2.6152,2.6149,2.6156,2.6172,2.6177,2.6203,2.6171,2.6167,2.6133,2.6205,2.6087,2.6082,2.6078,2.6005,2.5993,2.5983,0,0,0,0,0,2.6121,2.6074,2.6096,2.6095,2.6096,2.6082,2.6082,2.6114,2.6146,2.6125,2.6143,2.6177,2.6139,2.6167,2.6164,2.6128,2.609,2.6084,2.6078,2.601,2.5995,2.5983,0,0,0,0,0,0,2.6044,2.6077,2.6103,2.6062,2.6069,2.6093,2.6067,2.6098,2.6094,2.6101,2.614,2.6143,2.6105,2.6114,2.6145,2.6074,2.612,2.6113,2.6069,2.6056,2.6045,2.6042,2.6204,0,0,0,0,0,2.6023,2.601,2.6039,2.6,2.6003,2.6035,2.6029,2.6054,2.6062,2.6065,2.608,2.6085,2.6074,2.6066,2.6058,2.6008,2.6011,2.5982,2.5971,2.5962,2.5954,2.5928,2.5915,2.6057,2.6057,2.6057,0,0,2.5978,2.5995,2.5984,2.5986,2.5994,2.5978,2.6036,2.6017,2.6005,2.6061,2.6032,2.6044,2.6052,2.601,2.5993,2.6016,2.5917,2.5955,2.5947,2.5945,2.5921,2.5907,2.5895,2.6053,2.6053,2.6054,0,0,2.5887,2.59,2.5868,2.5876,2.5889,2.591,2.5903,2.5924,2.5934,2.5906,2.5948,2.5934,2.5915,2.5919,2.5918,2.5832,2.5862,2.5828,2.5769,2.5743,2.5732,2.5722,2.5689,2.5677,2.5821,2.5821,2.5821,0,2.5829,2.5808,2.5848,2.5826,2.5825,2.5878,2.5846,2.5851,2.5859,2.5856,2.5884,2.5861,2.5871,2.583,2.581,2.5808,2.5799,2.5824,2.5731,2.5721,2.5712,2.5681,2.5669,2.5817,2.5817,2.5818,2.5818,0,2.5735,2.572,2.5694,2.5702,2.5699,2.5671,2.5705,2.5697,2.5723,2.5741,2.5712,2.5726,2.5721,2.5714,2.5738,2.5677,2.5691,2.5724,2.577,2.5694,2.5665,2.5654,2.581,2.5812,2.5813,2.5814,0,0,2.5594,2.5627,2.5616,2.562,2.5639,2.5627,2.5603,2.56,2.5591,2.5596,2.5575,2.5559,2.559,2.5589,2.5614,2.5592,2.552,2.5627,2.5628,2.5605,2.5452,2.5425,2.541,2.5542,2.554,2.5538,2.545,0,2.5506,2.5467,2.5503,2.5456,2.5442,2.5493,2.5471,2.548,2.5497,2.5487,2.5506,2.5493,2.5535,2.5535,2.5515,2.5533,2.5489,2.554,2.552,2.5519,2.5514,2.5396,2.5367,2.5283,2.5439,2.5438,2.5436,0,2.5398,2.5399,2.5351,2.5374,2.5369,2.5349,2.535,2.534,2.5351,2.5365,2.5365,2.5397,2.5373,2.5422,2.5388,2.5422,2.5417,2.5424,2.5422,2.5418,2.5471,2.5387,2.5257,2.5244,2.542,2.5421,2.5422,0,2.5296,2.5287,2.5257,2.526,2.5285,2.527,2.528,2.5293,2.5289,2.529,2.5287,2.5284,2.5282,2.5278,2.5308,2.5341,2.527,2.5321,2.5279,2.5278,2.5259,2.5259,2.5124,2.526,2.5261,2.5261,2.5261,0,2.5193,2.5161,2.5212,2.5193,2.5159,2.52,2.5164,2.518,2.5191,2.5175,2.522,2.5204,2.5246,2.5234,2.5257,2.5225,2.5224,2.5234,2.524,2.5228,2.5226,2.5222,2.5228,2.5258,2.5258,2.5259,2.526,0,2.5073,2.5106,2.5076,2.5104,2.511,2.5084,2.5107,2.509,2.5112,2.5091,2.5088,2.5121,2.5109,2.514,2.5132,2.5148,2.5101,2.5118,2.5098,2.5102,2.5057,2.506,2.4912,2.4894,2.5044,2.5043,2.5042,0,2.5003,2.498,2.5006,2.5,2.5008,2.4996,2.4993,2.5034,2.5029,2.504,2.5021,2.5013,2.5009,2.4987,2.5009,2.5004,2.5019,2.4968,2.5018,2.5007,2.5015,2.5015,2.5012,2.4956,2.4954,2.4953,2.4952,0,2.4875,2.4893,2.4888,2.4888,2.4884,2.4886,2.4891,2.4883,2.4926,2.4918,2.4907,2.4904,2.4898,2.4888,2.4888,2.4897,2.493,2.4936,2.4926,2.4912,2.49,2.4904,2.5066,2.4939,2.494,2.4941,2.4942,2.4942,2.4776,2.4758,2.4774,2.4767,2.4775,2.4779,2.4765,2.4786,2.4778,2.4777,2.4801,2.4785,2.4797,2.48,2.4806,2.4793,2.4816,2.4801,2.4797,2.4792,2.4783,2.4905,2.4793,2.4793,2.4794,2.4794,2.4794,0,2.4649,2.4662,2.4656,2.4662,2.4656,2.4692,2.47,2.4691,2.4677,2.4686,2.4682,2.467,2.4662,2.4684,2.4679,2.4664,2.468,2.4661,2.4661,2.4662,2.4764,2.4773,2.4649,2.4649,2.4649,2.4649,2.4649,2.4649,2.4582,2.4552,2.4572,2.4548,2.4561,2.4547,2.4548,2.4552,2.4559,2.4544,2.4538,2.4554,2.4568,2.4565,2.4559,2.4566,2.456,2.4536,2.4548,2.4641,2.4655,2.4669,2.4677,2.4535,2.4535,2.4447,2.4446,2.4446]}]]